TimeCDT,TemperatureF,Dew PointF,Humidity,Sea Level PressureIn,VisibilityMPH,Wind Direction,Wind SpeedMPH,Gust SpeedMPH,PrecipitationIn,Events,Conditions,WindDirDegrees,DateUTC
12:15 AM,23.0,17.6,80,30.40,10.0,Calm,Calm,-,N/A,,Clear,0,2012-10-12 05:15:00
12:55 AM,21.2,17.6,86,30.40,10.0,Calm,Calm,-,N/A,,Clear,0,2012-10-12 05:55:00
1:15 AM,19.4,17.6,93,30.41,10.0,Calm,Calm,-,N/A,,Clear,0,2012-10-12 06:15:00
1:35 AM,21.2,17.6,86,30.41,10.0,Calm,Calm,-,N/A,,Clear,0,2012-10-12 06:35:00
1:55 AM,19.4,15.8,86,30.41,10.0,Calm,Calm,-,N/A,,Clear,0,2012-10-12 06:55:00
2:15 AM,19.4,14.0,80,30.41,10.0,Calm,Calm,-,N/A,,Clear,0,2012-10-12 07:15:00
2:55 AM,21.2,15.8,80,30.41,10.0,Calm,Calm,-,N/A,,Clear,0,2012-10-12 07:55:00
3:15 AM,17.6,14.0,86,30.41,10.0,Calm,Calm,-,N/A,,Clear,0,2012-10-12 08:15:00
3:35 AM,17.6,14.0,86,30.40,10.0,Calm,Calm,-,N/A,,Clear,0,2012-10-12 08:35:00
3:55 AM,19.4,14.0,80,30.41,10.0,Calm,Calm,-,N/A,,Clear,0,2012-10-12 08:55:00
4:15 AM,17.6,12.2,79,30.41,10.0,SW,3.5,-,N/A,,Clear,230,2012-10-12 09:15:00
4:35 AM,15.8,14.0,93,30.41,10.0,Calm,Calm,-,N/A,,Clear,0,2012-10-12 09:35:00
4:55 AM,17.6,14.0,86,30.41,10.0,Calm,Calm,-,N/A,,Unknown,0,2012-10-12 09:55:00
5:15 AM,17.6,14.0,86,30.41,10.0,Calm,Calm,-,N/A,,Unknown,0,2012-10-12 10:15:00
5:35 AM,19.4,14.0,80,30.41,10.0,Calm,Calm,-,N/A,,Unknown,0,2012-10-12 10:35:00
5:55 AM,19.4,14.0,80,30.40,10.0,Calm,Calm,-,N/A,,Clear,0,2012-10-12 10:55:00
6:15 AM,17.6,14.0,86,30.40,10.0,Calm,Calm,-,N/A,,Clear,0,2012-10-12 11:15:00
6:35 AM,17.6,14.0,86,30.40,10.0,Calm,Calm,-,N/A,,Clear,0,2012-10-12 11:35:00
6:55 AM,17.6,14.0,86,30.40,10.0,Calm,Calm,-,N/A,,Clear,0,2012-10-12 11:55:00
7:15 AM,19.4,14.0,80,30.40,10.0,Calm,Calm,-,N/A,,Clear,0,2012-10-12 12:15:00
7:35 AM,17.6,14.0,86,30.39,10.0,Calm,Calm,-,N/A,,Clear,0,2012-10-12 12:35:00
7:55 AM,17.6,14.0,86,30.39,10.0,Calm,Calm,-,N/A,,Clear,0,2012-10-12 12:55:00
8:15 AM,17.6,14.0,86,30.39,10.0,Calm,Calm,-,N/A,,Clear,0,2012-10-12 13:15:00
8:35 AM,19.4,15.8,86,30.39,10.0,Calm,Calm,-,N/A,,Clear,0,2012-10-12 13:35:00
8:55 AM,23.0,19.4,86,30.39,10.0,Calm,Calm,-,N/A,,Clear,0,2012-10-12 13:55:00
9:15 AM,28.4,21.2,74,30.38,10.0,SE,3.5,-,N/A,,Clear,130,2012-10-12 14:15:00
9:35 AM,32.0,23.0,69,30.38,10.0,SE,6.9,-,N/A,,Clear,140,2012-10-12 14:35:00
9:55 AM,33.8,23.0,65,30.37,10.0,SE,8.1,-,N/A,,Clear,140,2012-10-12 14:55:00
10:15 AM,37.4,23.0,56,30.37,10.0,SSE,12.7,17.3,N/A,,Clear,150,2012-10-12 15:15:00
10:35 AM,37.4,23.0,56,30.36,10.0,SSE,10.4,-,N/A,,Clear,150,2012-10-12 15:35:00
11:15 AM,42.8,21.2,42,30.34,10.0,South,16.1,20.7,N/A,,Clear,170,2012-10-12 16:15:00
11:35 AM,42.8,21.2,42,30.33,10.0,SSE,15.0,21.9,N/A,,Clear,160,2012-10-12 16:35:00
12:15 PM,44.6,19.4,37,30.31,10.0,South,15.0,23.0,N/A,,Clear,170,2012-10-12 17:15:00
12:35 PM,44.6,19.4,37,30.31,10.0,SSE,16.1,20.7,N/A,,Clear,160,2012-10-12 17:35:00
12:55 PM,46.4,19.4,34,30.30,10.0,South,13.8,18.4,N/A,,Clear,170,2012-10-12 17:55:00
1:35 PM,46.4,17.6,32,30.27,10.0,SSE,13.8,23.0,N/A,,Clear,160,2012-10-12 18:35:00
1:55 PM,48.2,15.8,27,30.25,10.0,South,15.0,21.9,N/A,,Clear,170,2012-10-12 18:55:00
2:15 PM,48.2,17.6,30,30.24,10.0,South,15.0,24.2,N/A,,Clear,180,2012-10-12 19:15:00
2:35 PM,48.2,14.0,25,30.23,10.0,South,19.6,23.0,N/A,,Clear,180,2012-10-12 19:35:00
2:55 PM,50.0,14.0,24,30.22,10.0,South,19.6,24.2,N/A,,Clear,170,2012-10-12 19:55:00
3:15 PM,50.0,14.0,24,30.21,10.0,South,18.4,-,N/A,,Clear,170,2012-10-12 20:15:00
3:35 PM,50.0,14.0,24,30.20,10.0,South,17.3,25.3,N/A,,Clear,170,2012-10-12 20:35:00
3:55 PM,50.0,14.0,24,30.19,10.0,South,20.7,26.5,N/A,,Clear,180,2012-10-12 20:55:00
4:15 PM,50.0,14.0,24,30.17,10.0,SSE,18.4,24.2,N/A,,Clear,160,2012-10-12 21:15:00
4:35 PM,50.0,14.0,24,30.16,10.0,SSE,19.6,25.3,N/A,,Clear,160,2012-10-12 21:35:00
4:55 PM,50.0,14.0,24,30.14,10.0,SSE,17.3,25.3,N/A,,Clear,160,2012-10-12 21:55:00
5:15 PM,50.0,14.0,24,30.13,10.0,SSE,18.4,26.5,N/A,,Clear,160,2012-10-12 22:15:00
5:55 PM,48.2,14.0,25,30.10,10.0,SSE,19.6,26.5,N/A,,Clear,160,2012-10-12 22:55:00
6:15 PM,46.4,14.0,27,30.09,10.0,SSE,16.1,21.9,N/A,,Clear,150,2012-10-12 23:15:00
6:35 PM,46.4,14.0,27,30.08,10.0,SSE,12.7,-,N/A,,Clear,150,2012-10-12 23:35:00
6:55 PM,46.4,15.8,29,30.06,10.0,SE,12.7,-,N/A,,Mostly Cloudy,130,2012-10-12 23:55:00
7:15 PM,46.4,17.6,32,30.06,10.0,SSE,11.5,-,N/A,,Overcast,150,2012-10-13 00:15:00
7:35 PM,46.4,17.6,32,30.05,10.0,SSE,12.7,-,N/A,,Overcast,150,2012-10-13 00:35:00
7:55 PM,46.4,17.6,32,30.04,10.0,SE,11.5,-,N/A,,Overcast,140,2012-10-13 00:55:00
8:15 PM,46.4,17.6,32,30.03,10.0,SE,12.7,-,N/A,,Overcast,140,2012-10-13 01:15:00
8:35 PM,46.4,17.6,32,30.02,10.0,SSE,16.1,21.9,N/A,,Overcast,150,2012-10-13 01:35:00
8:55 PM,46.4,17.6,32,30.00,10.0,SE,13.8,19.6,N/A,,Overcast,140,2012-10-13 01:55:00
9:15 PM,46.4,17.6,32,29.99,10.0,SE,15.0,-,N/A,,Overcast,140,2012-10-13 02:15:00
9:35 PM,46.4,17.6,32,29.99,10.0,SE,15.0,19.6,N/A,,Overcast,140,2012-10-13 02:35:00
9:55 PM,46.4,17.6,32,29.99,10.0,SSE,15.0,-,N/A,,Overcast,150,2012-10-13 02:55:00
10:15 PM,46.4,17.6,32,29.98,10.0,SSE,15.0,18.4,N/A,,Overcast,150,2012-10-13 03:15:00